GFSSGP_con_lsi_048.txt.gz
Lid_Strength_Index
-1 -1 -0 2 7 7 10 9 6 8 7 6 5 7 8 7 8 11 2 1 1 1 -0 -1 -0 -1 -1 -1 -1 -1 -1 -2 -2 -2 -2 -2 -2 -2 -2 -2 -2 -2 -3 -2 -2 -2 -2 -2 -2
-0 0 1 4 9 11 10 7 8 6 6 4 5 6 7 8 5 4 3 1 0 -0 -0 -0 -0 -1 -1 -1 -1 -1 -2 -2 -2 -2 -2 -2 -2 -2 -2 -2 -2 -2 -3 -2 -2 -2 -2 -2 -2
0 0 4 6 8 11 10 7 7 5 4 5 5 4 5 8 4 3 1 0 0 0 -0 -1 -0 -1 -1 -1 -1 -1 -1 -1 -2 -2 -2 -2 -2 -2 -2 -2 -2 -2 -3 -2 -2 -2 -2 -2 -3
1 2 4 8 10 8 8 6 5 6 4 4 5 6 5 3 3 2 1 1 0 0 -0 -0 0 -0 -1 -1 -1 -1 -1 -1 -1 -1 -2 -2 -2 -2 -2 -1 -2 -2 -2 -2 -2 -2 -2 -3 -3
1 3 8 9 9 7 6 5 5 6 5 6 5 7 7 3 1 1 1 1 1 0 -0 -0 -0 -1 -1 -1 -1 -1 -1 -1 -1 -1 -2 -2 -2 -2 -1 -1 -2 -2 -2 -2 -2 -2 -2 -3 -4
5 4 9 11 9 7 6 6 6 5 5 6 7 7 7 2 2 2 1 1 -0 0 -0 -0 -1 -1 -1 -1 -1 -1 -1 -1 -1 -1 -1 -2 -2 -1 -1 -1 -1 -2 -2 -2 -2 -2 -3 -4 -4
5 7 9 9 8 8 7 5 7 7 7 8 5 8 6 4 3 2 1 0 0 -0 -0 -0 -0 -1 -0 -0 -1 -1 -1 -1 -1 -1 -1 -1 -1 -1 -1 -1 -2 -2 -2 -2 -2 -3 -3 -3 -3
4 6 9 8 9 9 5 5 5 5 8 4 4 8 8 4 2 3 2 1 1 1 1 1 -0 -0 -0 -0 -1 -1 -1 -1 -1 -1 -1 -2 -1 -2 -2 -1 -2 -2 -2 -2 -3 -3 -3 -3 -2
3 8 10 9 8 7 5 6 4 4 5 6 5 5 4 3 3 3 4 3 3 2 2 2 1 1 -1 -1 -1 -1 -1 -1 -1 -1 -1 0 1 1 -0 -1 -2 -2 -2 -3 -3 -3 -3 -2 -1
5 8 8 6 6 6 5 5 6 8 7 7 6 4 3 3 3 5 5 5 4 4 3 1 2 2 2 -0 -1 -1 -1 -0 -0 1 1 2 2 1 0 -1 -1 -2 -2 -3 -3 -3 -2 -2 1
5 8 6 5 5 5 5 5 4 6 9 7 7 6 4 4 4 4 5 5 4 4 4 4 3 2 2 1 1 0 0 1 0 1 1 0 1 0 0 0 -0 -1 -2 -1 -1 -1 0 -0 0
7 5 5 5 4 5 6 5 6 6 7 5 5 4 4 5 4 4 5 5 4 4 4 4 3 3 2 2 1 1 1 0 1 1 -0 -0 1 0 0 -0 -0 -1 -0 0 0 1 -0 0 -0
6 5 5 4 4 5 4 7 7 7 5 4 4 4 5 4 4 4 4 5 5 6 4 4 3 3 3 3 2 2 1 1 1 1 -0 -0 0 0 0 -0 -0 -0 -1 -0 0 -0 1 0 -0
5 5 5 5 5 5 7 8 7 6 4 5 5 5 5 5 4 5 5 5 5 5 5 3 3 3 3 4 4 3 1 1 2 2 -1 -1 -1 -0 -0 -0 -0 -0 -0 -0 -0 0 0 1 0
5 7 6 5 5 6 6 9 9 6 5 6 6 5 5 4 4 4 3 4 4 4 4 4 3 3 3 3 2 2 2 1 0 -0 -1 -1 -1 -1 -0 0 0 0 -0 -0 0 0 0 1 1
6 7 9 6 6 6 7 12 7 5 5 6 6 5 5 4 4 3 3 5 4 4 3 3 3 3 3 3 3 2 2 1 -0 -0 -1 -1 -1 -1 -0 0 0 -0 -0 0 0 1 1 1 1
7 10 9 8 6 7 9 12 8 6 5 6 6 5 5 5 4 3 3 3 3 3 4 4 4 4 4 3 5 4 2 0 0 -0 -0 -1 -1 -1 -0 0 0 -0 0 0 0 0 1 2 3
10 10 9 10 8 7 8 10 9 7 5 6 6 6 5 5 4 3 2 2 1 2 3 3 4 4 2 2 3 1 0 -0 -0 -0 -0 -1 -0 -1 -0 -0 0 -0 0 0 1 1 2 2 3
8 9 9 8 6 8 8 8 9 7 7 6 6 6 5 5 4 3 2 2 1 1 1 2 3 2 0 1 1 1 1 1 0 -0 -0 -0 -0 -0 0 0 0 0 1 1 1 1 3 4 4
8 9 9 8 6 7 8 8 8 8 7 6 6 6 5 5 4 3 3 2 2 2 1 1 1 1 1 0 0 1 1 0 0 -0 -0 -0 -0 -0 -0 0 0 0 1 1 1 2 3 4 4
8 9 9 9 7 7 8 9 8 7 6 5 5 5 5 5 5 4 3 3 2 2 2 1 1 1 0 0 0 0 0 0 1 1 1 0 -0 -0 -0 0 0 0 0 1 1 2 3 5 5
10 7 8 8 9 12 8 13 9 7 8 6 6 5 5 4 4 4 4 3 3 2 1 1 1 1 0 0 1 1 2 2 1 1 0 0 -0 0 -0 -0 0 0 1 1 2 2 3 4 6
8 6 7 8 9 10 10 12 10 7 8 7 6 5 5 4 4 4 4 3 2 2 2 1 1 1 1 1 1 1 2 1 1 1 1 1 0 -0 -0 -0 0 1 0 1 2 2 3 4 5
6 7 8 8 9 14 10 11 12 10 9 7 6 5 5 4 4 3 3 2 2 2 2 1 1 1 1 1 1 1 2 2 2 2 2 1 1 0 0 0 0 1 1 1 2 3 4 6 6
7 9 14 15 15 16 9 11 11 8 7 6 6 5 5 4 4 4 3 3 3 2 2 2 2 2 1 1 1 1 1 1 2 2 2 2 1 1 1 0 1 1 1 3 4 4 5 6 7
8 9 14 20 20 17 11 13 10 6 5 5 4 4 4 4 4 4 3 3 3 2 2 2 2 2 1 1 1 1 1 1 1 1 1 1 1 1 1 1 1 3 4 5 5 5 6 7 7
9 11 8 14 13 16 13 11 7 6 6 5 5 4 4 4 4 4 3 3 3 2 2 2 2 2 1 1 1 1 1 1 1 1 1 1 1 1 2 2 4 4 5 5 6 6 7 7 7
7 7 12 11 18 19 13 11 11 9 8 7 6 5 5 4 3 3 3 3 2 2 2 2 2 2 1 1 1 1 1 1 1 1 1 1 1 1 3 4 5 5 5 5 6 7 7 7 7
9 10 10 10 12 17 18 14 9 8 6 6 5 5 3 3 4 3 3 2 2 2 2 2 2 2 2 1 1 1 1 1 1 1 1 1 1 3 5 5 6 6 6 6 6 7 7 7 7
7 9 9 14 14 13 16 14 6 6 6 5 5 4 4 3 3 3 3 3 3 2 2 2 2 2 2 1 1 1 1 1 1 1 2 2 4 4 4 4 5 6 6 6 7 8 7 7 6

GFSSGP_con_lsi_051.txt.gz
Lid_Strength_Index
2 2 2 5 11 13 14 12 9 10 8 6 6 7 8 7 9 12 2 2 0 0 -0 -1 -1 -1 -1 -1 -1 -1 -1 -2 -2 -2 -2 -2 -2 -1 -1 -2 -2 -2 -3 -2 -2 -2 -2 -2 -2
3 2 4 7 13 16 13 10 10 8 6 5 6 6 7 8 5 4 3 1 0 0 0 -2 -1 -1 -1 -1 -1 -1 -2 -2 -2 -2 -2 -2 -2 -2 -2 -2 -2 -2 -3 -2 -1 -2 -2 -2 -2
2 2 8 11 13 14 13 9 8 6 5 5 6 5 6 8 4 4 1 1 0 0 -0 -1 -1 -1 -1 -1 -1 -1 -1 -1 -2 -2 -2 -2 -2 -2 -2 -2 -2 -2 -3 -2 -1 -2 -2 -2 -3
4 6 7 12 13 11 11 8 7 6 6 5 5 9 5 3 4 2 1 1 1 0 -0 -0 -0 -1 -1 -1 -1 -1 -1 -1 -1 -1 -2 -2 -2 -2 -2 -2 -2 -2 -3 -2 -2 -1 -1 -2 -2
4 8 12 13 12 9 8 7 6 7 6 7 6 9 7 3 2 1 1 0 1 1 0 -0 0 -1 -1 -1 -1 -1 -1 -1 -1 -1 -1 -1 -2 -2 -1 -1 -2 -2 -3 -2 -1 -1 -1 -2 -2
8 8 13 13 11 8 8 7 6 6 7 7 7 8 6 3 2 2 1 1 0 1 1 0 -1 -0 -1 -1 -1 -1 -1 -1 -1 -1 -1 -1 -1 -1 -1 -1 -2 -2 -2 -2 -2 -2 -2 -2 -2
9 11 13 12 11 9 8 6 6 7 8 8 5 9 6 4 2 1 1 0 0 -0 0 -0 -0 -1 -1 -1 -1 -1 -1 -1 -1 -1 -1 -1 -1 -1 -1 -1 -2 -2 -2 -2 -2 -2 -2 -2 -2
7 10 12 12 11 11 7 6 5 7 8 4 4 9 9 4 2 1 1 1 1 1 0 0 0 -0 -0 -1 -1 -1 -1 -1 -1 -1 -1 -0 -1 -1 -1 -1 -2 -2 -2 -2 -2 -2 -2 -2 -2
7 12 13 12 10 8 6 7 6 4 7 6 5 5 4 2 2 2 2 3 3 2 2 2 2 1 1 -0 -1 -1 -1 -1 -1 -1 -1 0 0 -0 -1 -1 -2 -2 -1 -2 -2 -2 -3 -2 -1
9 13 11 8 8 9 7 8 7 7 7 7 6 4 3 3 3 4 4 4 4 3 3 2 2 2 1 -1 -0 -0 -1 -0 0 1 2 2 2 0 -0 -1 -1 -1 -1 -2 -2 -3 -2 -1 3
8 11 8 7 7 7 8 8 6 8 9 7 7 6 4 4 4 5 5 4 4 4 3 3 3 2 1 1 1 -0 -0 0 1 1 2 2 1 1 1 1 0 0 -1 0 -1 -1 1 1 2
10 7 7 7 7 7 8 7 8 7 8 5 5 4 4 5 4 5 5 5 5 5 4 3 3 3 3 2 3 1 1 1 2 1 1 1 1 2 2 2 1 2 0 2 2 2 1 2 3
9 7 6 6 6 6 6 8 8 7 5 4 4 4 5 4 4 4 5 5 5 5 4 4 3 3 3 3 2 2 1 2 2 1 0 1 1 1 1 1 2 0 1 2 2 1 2 2 2
7 7 7 6 6 6 7 8 7 7 5 5 5 5 5 4 5 5 5 6 5 4 4 3 3 3 3 3 4 3 2 3 2 2 1 0 1 0 1 1 0 1 1 1 1 1 2 2 3
6 8 8 8 7 8 6 9 9 6 5 6 6 5 5 4 4 5 5 5 5 4 4 4 4 3 3 3 3 3 2 1 2 2 1 0 -0 0 0 0 0 -0 1 1 2 2 2 2 2
8 9 12 9 7 7 7 12 7 6 6 7 7 6 5 5 4 3 4 4 4 4 4 4 3 3 3 3 3 3 3 2 2 1 1 0 -1 0 0 1 1 1 1 1 2 2 2 3 4
10 13 12 10 7 8 9 12 7 6 6 7 7 6 6 5 4 5 4 4 4 3 3 3 3 3 3 3 3 3 3 3 2 2 0 -0 -0 -1 0 0 1 1 1 1 2 2 3 3 4
13 12 12 11 8 8 11 11 8 7 7 7 7 7 6 6 5 4 3 3 3 4 4 4 4 4 3 3 4 3 3 3 2 1 1 -0 -0 -1 0 0 1 1 2 2 2 2 3 3 5
10 10 12 10 8 9 11 11 9 8 8 8 7 7 6 6 4 3 2 3 3 3 4 4 4 4 2 2 3 4 3 2 2 1 0 0 -0 -0 0 1 1 1 2 2 2 3 4 5 6
9 11 11 8 7 9 11 11 9 8 8 7 7 7 6 6 5 4 3 2 2 2 3 3 3 3 3 1 3 3 2 1 1 0 1 -0 -0 -0 0 1 2 2 2 2 2 4 5 5 6
10 11 11 10 9 9 10 13 11 8 7 7 6 6 6 6 6 4 4 3 3 3 3 3 3 3 2 0 1 1 1 2 2 2 1 0 -0 -0 0 1 1 2 2 2 3 4 5 6 6
11 9 8 9 11 14 11 16 12 10 10 8 7 6 6 6 5 4 4 3 3 3 2 2 3 2 1 0 1 1 2 3 2 2 1 0 0 0 0 1 1 2 2 2 3 3 4 4 6
9 7 8 9 11 12 12 14 12 10 11 10 7 7 6 5 5 5 4 3 3 3 3 2 1 1 1 1 1 1 2 2 2 2 1 1 1 1 0 1 1 2 1 2 2 3 4 4 5
7 8 9 10 12 17 12 13 14 11 9 9 7 6 6 5 5 4 3 3 3 3 2 2 2 2 1 1 1 1 2 2 3 2 1 1 1 1 0 -0 1 1 2 2 2 3 4 5 5
9 11 16 19 18 18 12 13 12 9 8 7 7 6 5 5 5 5 4 4 3 3 3 2 2 2 1 1 1 1 2 2 2 2 2 2 2 3 1 0 2 2 2 2 3 4 5 6 6
10 11 17 22 21 18 12 15 12 8 7 6 6 5 5 5 5 5 4 4 3 3 2 2 2 2 2 2 1 1 1 1 1 1 3 2 2 2 1 2 2 3 3 4 5 5 6 6 6
10 12 9 15 15 18 15 12 9 8 8 8 8 7 6 6 5 4 4 3 3 3 3 2 2 2 2 1 1 1 1 1 1 2 2 2 3 3 3 2 3 3 5 5 6 6 6 6 7
9 8 13 14 21 22 16 15 14 10 9 9 9 8 7 7 5 4 4 3 3 2 2 2 2 2 2 2 1 1 1 2 2 2 3 3 3 3 3 3 3 5 6 6 6 6 7 7 7
10 11 10 12 14 19 20 16 10 10 8 9 9 7 7 6 6 5 4 3 3 3 2 2 2 2 2 2 1 2 3 3 2 2 2 2 3 4 4 5 5 5 6 6 7 7 7 7 7
9 10 10 16 16 16 17 16 8 8 8 7 7 7 7 6 6 5 5 5 4 3 3 3 2 2 2 2 2 2 2 2 2 3 3 3 3 4 5 5 5 6 6 7 8 8 7 7 8

GFSSGP_con_lsi_054.txt.gz
Lid_Strength_Index
3 3 4 6 12 14 15 13 10 10 11 6 6 7 8 7 10 13 2 2 2 1 -0 -1 -1 -1 -1 -1 -1 -1 -2 -2 -2 -2 -1 -1 -2 -2 -2 -2 -2 -2 -3 -3 -2 -2 -2 -2 -2
4 3 5 9 14 17 15 11 11 9 8 5 6 6 8 9 6 4 4 2 1 0 -0 -0 -1 -1 -1 -1 -1 -1 -2 -2 -2 -1 -1 -1 -2 -2 -2 -2 -2 -3 -3 -3 -2 -2 -2 -2 -2
4 4 9 11 15 16 15 11 9 7 5 6 6 6 7 8 4 4 3 2 1 0 1 -0 -1 -1 -1 -1 -1 -1 -1 -1 -1 -1 -1 -2 -2 -2 -2 -2 -2 -3 -3 -3 -2 -2 -1 -2 -2
5 7 9 13 14 12 11 9 8 7 6 6 6 9 5 3 4 2 2 0 0 0 1 0 -1 -1 -1 -1 -1 -1 -1 -1 -1 -1 -1 -2 -2 -2 -2 -2 -2 -3 -3 -2 -2 -2 -1 -2 -2
5 9 13 14 13 11 9 7 6 8 7 7 6 8 7 3 1 1 1 0 1 0 0 -0 -0 -1 -1 -1 -1 -1 -1 -1 -1 -1 -1 -1 -2 -2 -2 -2 -2 -2 -3 -2 -2 -1 -2 -1 -2
9 9 14 15 13 10 8 6 7 8 7 7 8 8 6 3 2 2 1 1 0 0 -0 0 -1 -1 -1 -1 -1 -1 -1 -1 -1 -1 -1 -1 -1 -1 -2 -2 -2 -2 -2 -3 -2 -2 -1 -1 -2
10 11 14 14 12 11 8 6 7 8 8 8 6 9 6 4 2 1 1 1 0 0 0 1 0 -1 -1 -1 -1 -1 -1 -1 -1 -1 -1 -1 -1 -1 -1 -2 -2 -2 -2 -2 -1 -1 -1 -2 -3
9 10 14 13 13 11 8 6 6 7 8 4 4 9 9 4 2 1 1 1 1 0 0 0 0 -0 -0 -0 -1 -1 -1 -1 -1 -1 -1 -0 -1 -1 -1 -1 -2 -2 -2 -1 -1 -1 -1 -1 -2
8 12 14 13 11 9 6 7 6 5 7 6 5 5 4 2 2 2 2 2 2 2 0 0 0 1 1 0 -0 -0 -1 -1 -1 -1 -1 0 -0 -1 -1 -1 -2 -2 -1 -1 -1 -0 -0 0 -2
10 14 12 10 9 8 8 8 8 7 7 7 6 4 3 3 3 4 4 4 3 3 3 1 1 1 2 2 0 -1 -1 -0 1 2 2 1 1 -0 -1 -1 -1 -1 -0 -0 -0 -1 -1 0 3
11 11 8 8 7 7 8 8 7 8 9 8 8 6 4 4 4 4 4 3 3 3 3 3 2 2 2 2 1 -0 -0 1 2 3 2 1 0 0 0 1 1 1 1 2 1 2 2 1 3
11 9 8 8 7 7 8 7 8 7 8 5 5 4 4 5 4 4 4 4 4 3 3 3 2 2 2 0 0 -0 0 1 2 2 2 1 2 2 2 2 1 2 3 4 3 2 1 2 3
9 8 7 7 6 7 6 8 8 8 6 5 4 5 5 5 4 5 5 4 4 4 4 4 3 3 3 3 1 1 0 1 1 1 2 2 3 3 2 2 2 3 3 5 2 2 2 3 4
7 7 8 8 7 6 8 8 7 7 5 6 6 6 5 5 4 4 5 5 5 4 4 4 3 3 3 3 2 2 1 1 1 1 1 2 2 3 3 2 3 3 2 2 2 2 3 4 4
7 9 9 9 7 8 7 10 9 7 6 7 6 6 5 4 4 4 5 5 4 4 3 4 4 3 3 4 3 3 2 2 2 2 1 1 2 2 2 1 1 2 1 2 2 2 3 3 3
9 10 13 10 8 7 8 12 8 6 7 8 7 6 6 5 4 4 4 4 4 3 3 4 2 3 3 3 3 3 3 2 2 2 1 1 1 1 1 0 -0 -0 1 2 2 3 3 4 4
11 14 12 11 8 8 9 12 8 6 7 8 7 7 6 5 4 4 4 4 3 4 4 4 4 4 3 3 3 3 3 3 2 3 1 1 0 -0 1 1 1 1 2 2 2 3 3 4 5
14 13 14 13 9 9 10 11 9 7 7 8 8 7 6 6 5 4 3 3 3 4 4 4 3 3 3 3 3 3 3 4 3 2 2 1 0 0 1 0 1 1 2 3 3 3 3 4 4
10 12 12 10 8 9 11 11 9 8 8 8 8 7 7 6 4 4 3 3 3 3 4 4 4 4 3 4 5 5 5 4 4 2 2 2 0 0 1 0 1 2 2 2 2 3 4 5 6
10 11 11 10 8 9 11 11 10 9 8 8 8 8 7 6 5 4 4 3 3 3 3 3 3 3 2 2 3 3 4 4 2 2 2 1 0 0 0 0 1 2 2 2 3 4 5 5 7
10 11 11 11 9 10 10 12 12 9 8 7 7 6 6 6 6 5 4 4 3 3 3 3 3 3 2 1 2 4 4 2 2 1 2 1 0 0 0 0 1 2 2 3 3 4 5 5 6
12 9 10 10 12 15 12 16 13 10 10 8 7 7 6 6 5 4 4 4 3 3 3 2 2 3 2 2 1 3 3 3 2 2 2 2 0 0 0 0 1 2 2 3 3 3 4 4 6
10 8 9 10 12 13 13 15 13 10 11 10 8 7 6 5 5 5 4 3 3 2 3 3 3 2 2 2 1 2 4 2 1 2 3 2 1 0 0 0 1 2 1 1 2 3 4 4 5
7 9 10 11 12 17 13 14 14 13 11 9 8 7 6 6 5 4 3 3 3 3 3 3 3 3 2 2 1 1 3 3 2 3 4 3 1 0 1 0 1 2 1 1 2 3 3 4 5
9 12 16 18 18 18 12 14 13 10 8 8 8 7 6 5 5 5 4 4 3 4 4 3 3 3 3 3 2 2 2 2 2 2 3 3 1 2 2 1 1 1 1 1 2 4 4 5 6
11 12 16 20 21 18 13 16 12 9 8 6 6 6 5 5 5 5 4 4 4 3 3 3 3 3 3 2 2 2 2 1 1 1 2 3 1 1 2 2 2 2 2 3 4 5 5 6 6
10 12 10 15 15 18 16 13 10 9 9 8 7 6 6 6 5 5 4 4 4 4 3 3 3 3 3 2 2 2 2 1 1 1 2 2 2 2 2 2 3 3 4 4 5 6 7 6 6
10 8 14 14 20 21 17 15 14 11 10 10 9 7 6 5 5 5 4 4 3 3 3 3 2 3 2 2 2 2 1 1 1 2 2 3 2 3 3 3 3 4 4 6 6 6 6 7 7
11 12 11 12 15 19 20 16 10 10 9 10 10 8 7 6 5 4 4 3 3 2 2 2 2 2 2 2 2 2 2 1 2 1 2 2 2 3 3 4 4 6 6 7 6 7 7 7 7
10 10 11 15 17 15 17 15 9 9 8 8 8 8 7 6 5 4 4 4 3 3 3 2 2 2 2 1 1 2 1 1 1 2 2 2 2 3 3 4 5 6 6 7 7 8 7 7 8

GFSSGP_con_lsi_057.txt.gz
Lid_Strength_Index
3 2 4 7 13 14 15 14 12 11 11 8 6 8 9 8 11 12 3 2 1 0 -0 -0 -1 -1 -1 -1 -1 -1 -1 -1 -1 -1 -2 -1 -2 -2 -2 -2 -2 -2 -2 -2 -2 -2 -2 -2 -2
4 4 6 10 14 17 16 12 12 10 8 6 6 7 8 9 6 5 4 2 2 2 -0 -0 -1 -1 -1 -2 -1 -1 -2 -1 -1 -1 -2 -2 -2 -2 -2 -2 -2 -2 -2 -2 -2 -2 -2 -2 -2
5 6 9 12 16 16 15 12 10 9 6 6 7 6 7 8 4 4 3 2 2 2 -0 -0 -1 -1 -1 -2 -1 -1 -1 -1 -1 -1 -2 -2 -2 -2 -2 -2 -2 -2 -2 -2 -2 -2 -2 -2 -2
6 8 10 13 14 13 12 10 9 7 6 6 7 9 6 3 4 2 1 2 2 1 0 -0 -1 -1 -1 -1 -1 -1 -1 -1 -1 -1 -2 -2 -2 -2 -2 -2 -2 -2 -2 -2 -2 -2 -2 -2 -2
7 10 13 15 14 11 10 9 7 8 8 7 7 9 8 3 1 1 1 2 3 2 1 -0 -0 -1 -1 -1 -2 -2 -1 -1 -1 -1 -1 -2 -2 -2 -2 -2 -2 -2 -2 -3 -2 -2 -2 -2 -2
11 11 14 16 14 11 10 8 7 8 7 7 8 8 7 3 3 2 1 1 0 1 1 1 -1 -1 -1 -1 -1 -1 -1 -1 -1 -1 -1 -1 -2 -2 -2 -2 -2 -2 -2 -2 -2 -2 -2 -2 -1
11 12 14 15 13 12 10 7 8 8 9 8 6 9 6 4 2 2 1 1 0 0 0 -0 -0 -1 -0 0 0 1 -1 -1 -1 -1 -1 -1 -1 -1 -2 -2 -2 -2 -2 -2 -2 -1 -2 -2 -1
10 11 14 14 13 13 9 7 7 8 8 4 5 9 9 5 2 1 1 2 1 1 1 0 0 0 1 1 1 -0 -1 -1 -1 -1 -1 -1 -1 -1 -1 -2 -2 -2 -2 -2 -1 -1 -1 -1 -1
10 13 15 13 13 11 7 8 6 5 7 6 5 5 4 3 2 3 3 2 2 1 1 0 0 1 1 1 1 -1 -1 -0 -1 -1 -0 -0 -0 -0 -1 -1 -2 -1 -1 -1 -0 0 -1 -1 -1
12 14 13 10 10 9 8 8 7 8 8 7 6 5 3 3 3 4 4 4 3 2 1 2 2 2 2 1 1 -0 -0 -0 -1 -1 -0 -1 -0 -0 -1 -1 -1 -0 -0 -0 -0 1 1 2 3
12 12 10 9 9 7 8 9 7 8 10 8 8 7 5 4 4 4 4 3 3 2 1 2 2 2 2 3 3 1 -0 -0 1 2 1 1 -0 -0 0 1 1 1 1 3 4 5 4 4 3
13 10 9 9 8 7 8 7 8 8 8 6 5 5 5 5 4 4 4 3 3 3 2 2 2 2 2 2 3 1 1 1 1 1 1 1 1 1 2 2 2 3 3 4 4 4 4 4 4
11 9 8 7 7 7 7 8 8 9 6 5 5 5 5 5 4 4 3 3 3 3 3 2 2 2 2 3 2 0 1 1 1 2 1 1 2 3 3 3 3 3 4 4 5 4 5 3 4
9 8 8 8 7 7 8 8 8 7 6 6 6 6 5 5 4 4 4 4 3 3 3 2 3 2 2 2 1 1 2 2 2 2 2 2 3 2 3 3 3 4 4 4 4 3 3 4 5
9 9 9 9 7 8 7 10 10 7 6 7 7 6 5 5 4 4 4 4 4 4 4 3 3 3 3 2 2 1 2 1 1 2 2 3 3 3 3 3 3 3 3 4 3 3 3 5 5
11 10 13 10 8 8 8 12 9 7 7 8 7 6 6 5 4 4 3 4 4 3 3 3 3 3 3 2 2 2 2 2 2 1 2 2 2 2 2 2 2 2 2 2 3 3 4 4 5
12 14 13 11 8 9 9 11 9 7 7 8 8 7 6 6 5 4 4 3 4 3 4 3 3 3 3 3 3 3 2 2 2 2 1 1 1 1 1 1 1 1 1 2 3 3 4 5 5
15 14 15 14 11 10 12 11 9 7 7 8 8 7 7 6 5 4 3 3 3 4 3 3 3 3 4 3 4 3 3 3 2 3 2 1 1 1 1 1 1 1 1 2 3 4 4 4 5
12 12 13 11 9 10 10 11 9 8 9 9 8 8 7 6 5 4 3 3 4 4 4 3 4 4 4 3 4 4 5 4 4 3 2 2 1 1 1 1 1 2 2 3 3 4 4 5 6
12 12 13 11 9 9 10 11 10 9 9 8 8 8 7 6 5 5 4 3 3 4 4 4 4 4 3 4 4 4 5 5 4 4 3 2 2 1 1 1 1 1 2 3 3 4 5 5 7
12 12 12 12 10 10 11 12 12 9 8 7 7 7 6 6 6 5 4 4 3 3 3 3 3 3 3 3 4 4 4 4 3 3 3 2 2 1 1 0 1 2 3 3 3 4 5 5 7
14 10 10 12 12 14 12 17 13 11 10 9 8 8 7 6 5 5 4 4 4 3 2 3 3 3 3 2 2 3 4 4 4 3 2 2 1 1 1 0 1 2 2 3 3 3 5 4 6
11 9 10 11 12 14 14 16 14 11 12 10 8 8 7 6 5 5 4 4 3 3 4 3 3 3 3 2 2 3 4 4 4 2 2 2 2 1 0 0 1 1 2 2 3 4 5 5 4
8 10 11 12 13 17 13 14 15 14 11 9 8 7 7 6 6 5 4 3 4 3 3 3 3 3 3 3 2 3 4 4 4 3 3 3 3 2 1 0 0 1 1 2 2 3 3 4 4
11 13 17 18 18 19 12 15 13 11 8 8 8 7 6 6 6 5 5 5 4 4 4 4 3 3 3 3 3 2 2 4 4 4 3 3 3 3 1 1 1 1 1 1 1 2 3 4 4
12 13 16 20 21 17 13 17 13 10 8 7 6 6 6 6 5 5 5 5 4 4 4 4 4 4 3 3 3 3 2 2 3 3 2 2 2 2 2 1 1 1 3 3 3 2 3 4 5
12 15 11 15 16 19 16 13 10 9 10 8 8 7 7 6 5 5 4 5 5 5 5 4 3 4 3 3 3 4 3 3 3 3 2 1 3 2 2 2 1 2 3 3 4 5 6 6 6
11 10 14 15 20 22 17 16 15 11 10 10 9 8 7 6 5 5 4 4 4 4 4 4 4 4 3 3 3 3 3 3 3 2 2 1 1 2 3 3 3 3 4 4 5 7 7 7 7
13 13 13 12 15 19 20 17 11 10 9 10 10 9 7 6 5 5 4 4 4 4 4 4 4 4 3 4 4 4 3 2 2 2 1 1 2 2 2 3 3 3 4 6 7 7 7 7 7
11 12 12 16 17 16 17 15 10 9 9 9 10 9 8 6 5 5 4 4 4 4 4 4 3 4 3 3 3 3 3 2 2 2 1 1 2 2 2 2 3 3 5 5 6 7 7 7 7

GFSSGP_con_lsi_063.txt.gz
Lid_Strength_Index
1 1 2 5 9 10 12 10 9 9 9 8 5 6 7 7 8 10 2 1 -0 -0 -1 -1 -1 -1 -1 -1 -1 -1 -1 -1 -1 -1 -1 -1 -2 -2 -2 -2 -2 -2 -3 -2 -2 -2 -2 -2 -2
2 3 4 7 10 12 11 10 10 8 7 5 5 6 7 8 5 4 3 1 -0 -0 -1 -1 -1 -1 -1 -1 -1 -1 -1 -1 -1 -1 -1 -2 -2 -2 -2 -2 -2 -2 -3 -2 -2 -2 -2 -2 -2
3 5 6 9 12 12 11 9 8 7 6 5 6 5 6 7 4 3 1 1 -0 -0 -1 -1 -1 -1 -1 -1 -1 -1 -1 -1 -1 -1 -2 -2 -2 -2 -2 -2 -2 -2 -3 -3 -2 -2 -2 -2 -2
4 5 8 9 12 10 9 7 8 8 5 5 6 8 5 3 3 2 0 0 1 -0 -1 0 -0 -1 -1 -1 -1 -1 -1 -1 -1 -1 -2 -2 -2 -2 -2 -2 -2 -2 -2 -2 -2 -2 -2 -2 -2
5 7 10 11 12 10 8 8 8 7 7 6 6 7 7 3 1 1 1 1 2 1 -1 -1 -0 -1 -1 -1 -1 -1 -1 -1 -1 -1 -1 -1 -2 -2 -2 -2 -2 -2 -2 -2 -2 -2 -2 -2 -2
7 8 11 12 12 9 8 7 7 6 6 6 7 7 6 2 2 1 0 0 1 1 -1 -1 -0 -1 -1 -1 -1 -1 -1 -1 -1 -1 -1 -1 -1 -1 -2 -2 -2 -2 -2 -2 -2 -2 -2 -2 -2
8 9 11 12 12 10 8 5 7 6 7 7 5 8 5 3 2 1 0 0 0 0 0 -1 -1 -1 -1 -0 -1 -1 -1 -1 -1 -1 -1 -1 -1 -1 -2 -2 -2 -2 -2 -2 -2 -2 -2 -2 -1
8 8 12 12 11 10 7 6 5 6 7 4 4 8 7 4 1 1 1 1 0 -0 -0 -0 -1 -1 -1 -1 -0 -0 -1 -0 -1 -1 -1 -1 -1 -1 -2 -2 -2 -2 -2 -2 -2 -2 -2 -1 -1
8 10 12 11 11 8 7 6 5 4 6 5 5 5 4 2 1 2 2 2 1 1 0 -0 -0 -0 -1 -1 -1 -1 -0 -1 -1 -1 -1 -1 -1 -1 -1 -1 -1 -1 -2 -2 -2 -1 -1 -0 -0
8 10 11 9 9 8 7 7 6 7 7 7 6 4 3 3 3 3 3 4 3 2 1 1 1 1 1 1 1 -0 -0 -0 -1 -1 -1 -1 -1 -0 0 -1 -1 -1 -1 -2 -2 -1 -0 0 1
9 10 10 9 8 8 8 6 5 7 8 6 7 5 4 4 3 4 3 3 3 2 1 1 1 2 2 2 2 1 0 0 -0 -1 -1 -0 0 -0 -1 -0 -0 -1 -1 -1 -1 -0 1 1 1
10 9 9 9 9 8 7 6 7 7 6 5 5 4 4 4 4 4 4 3 3 2 1 2 2 2 2 2 3 2 2 1 0 -0 -1 0 1 1 0 1 1 1 1 -0 -0 1 1 1 1
10 9 9 8 8 8 6 7 7 7 5 4 4 4 5 4 4 3 3 2 2 2 1 1 1 1 2 2 2 2 2 1 1 0 -1 1 2 2 1 1 2 2 1 1 2 1 1 1 1
8 9 9 8 8 7 7 7 7 6 5 6 5 5 4 4 4 3 3 3 3 2 2 2 2 2 2 2 2 1 1 1 1 -0 -1 0 2 2 2 2 2 2 2 2 2 2 2 2 1
8 10 9 9 9 8 6 8 9 6 6 7 6 5 5 4 4 4 3 3 2 2 2 3 3 2 3 2 2 1 1 1 1 -0 -1 1 1 1 1 2 2 2 2 2 2 3 3 3 3
10 11 12 10 8 7 7 10 7 6 7 7 7 6 5 4 4 3 2 2 2 2 2 2 2 3 3 2 2 1 1 1 1 1 -0 1 1 1 1 2 2 1 1 1 2 3 3 4 4
12 13 13 12 9 7 8 9 7 6 7 7 7 6 6 5 4 3 2 2 2 2 2 2 2 2 2 2 2 1 1 1 0 1 1 1 1 1 1 2 1 1 1 1 1 2 2 3 3
14 14 13 13 10 8 9 9 7 7 7 7 7 6 6 6 5 3 2 2 2 2 2 2 2 2 2 2 1 1 2 1 1 1 1 0 1 1 1 1 1 1 1 1 1 1 1 2 2
12 13 13 12 11 10 9 9 8 7 7 8 7 7 7 6 4 3 2 2 2 2 2 3 4 3 2 2 2 2 2 1 1 1 1 1 1 1 0 0 0 0 1 1 0 0 1 1 2
12 12 13 11 10 10 9 9 7 7 7 7 7 7 6 6 5 4 3 2 2 3 3 3 3 2 2 2 2 2 1 1 1 1 1 1 1 1 0 0 0 0 0 0 -0 0 1 0 2
12 13 13 13 11 10 10 10 9 7 7 7 6 6 5 6 6 5 4 3 2 3 2 2 3 3 2 2 3 3 3 3 2 2 1 1 0 0 -0 -0 0 -0 -1 0 0 0 1 2 2
13 11 12 13 13 13 10 14 10 8 8 8 7 7 6 6 5 4 4 3 3 2 1 1 2 2 2 2 3 3 3 4 2 2 1 2 1 0 0 0 0 -1 -1 -0 -0 -0 0 0 2
12 10 11 12 13 13 12 13 11 9 9 7 6 6 6 5 5 5 4 3 2 2 1 1 1 2 2 2 3 4 3 3 4 3 2 2 2 1 1 1 0 -0 -1 -0 -0 -0 0 0 1
10 11 11 12 12 16 12 12 12 10 9 7 6 6 6 5 5 4 4 3 3 2 1 1 1 1 2 2 2 3 3 3 3 4 3 2 1 1 0 0 -0 -1 -1 -0 -0 -1 -0 0 0
10 12 15 17 17 17 12 13 11 8 7 7 6 6 5 5 5 5 5 5 3 3 2 2 1 2 1 2 2 2 1 2 2 2 2 2 1 1 0 -0 -0 -0 -1 -1 -1 -0 -0 -0 0
12 12 15 19 19 16 13 15 11 7 6 6 6 6 5 5 5 5 4 4 4 3 2 2 2 2 1 1 2 1 1 1 1 1 1 1 1 0 -0 -0 -1 -1 -1 -1 -1 -0 -0 -0 2
12 13 10 14 14 16 14 12 9 7 7 7 7 6 6 6 5 5 4 4 3 3 2 2 2 2 2 2 1 1 1 1 1 0 1 1 1 1 0 -0 -0 -1 -1 -1 -0 -0 0 0 1
10 9 14 13 18 19 15 15 13 9 8 7 7 6 6 5 5 4 4 4 3 3 3 3 2 2 2 1 1 1 1 1 1 0 1 1 0 1 0 0 -0 -0 -0 -0 -0 0 0 1 1
12 12 12 12 13 17 17 15 9 9 8 7 7 6 6 5 5 5 4 3 3 3 3 3 3 3 2 2 2 2 2 2 1 2 1 1 1 0 0 0 0 0 0 -0 0 1 2 2 2
10 11 11 14 16 14 15 14 9 7 7 7 7 6 6 6 4 4 4 3 3 3 3 4 4 3 3 2 2 2 2 2 2 2 2 1 1 1 1 1 1 1 1 1 2 2 3 4 4

GFSSGP_con_lsi_066.txt.gz
Lid_Strength_Index
1 -0 -0 2 7 7 9 9 7 7 6 4 4 5 6 5 6 8 1 0 -0 -0 -1 -1 -1 -1 -1 -1 -1 -1 -1 -1 -1 -1 -1 -1 -1 -1 -1 -1 -2 -2 -2 -2 -2 -2 -2 -2 -2
0 0 1 4 8 10 9 7 7 6 5 4 4 5 6 6 4 3 2 0 -0 -1 -1 -1 -1 -1 -1 -1 -1 -1 -1 -1 -1 -1 -1 -1 -1 -2 -2 -2 -2 -2 -2 -2 -2 -2 -2 -2 -2
0 1 4 6 7 10 9 7 6 5 4 5 5 4 5 5 3 3 1 0 -0 -1 -1 -1 -1 -0 -1 -1 -1 -1 -1 -1 -1 -1 -1 -2 -2 -2 -2 -2 -2 -2 -2 -2 -2 -2 -2 -2 -2
2 3 4 8 9 8 8 6 5 5 4 4 4 6 4 2 3 1 0 -0 1 -0 -1 -1 -0 -0 -1 -1 -1 -1 -1 -1 -1 -1 -1 -2 -2 -2 -2 -2 -2 -2 -3 -2 -2 -2 -2 -2 -2
1 3 8 8 9 8 6 5 5 6 5 5 5 6 5 3 1 1 0 0 1 -0 -1 -1 -0 -1 -1 -1 -1 -1 -1 -1 -1 -1 -1 -1 -2 -2 -2 -2 -2 -2 -2 -2 -2 -2 -2 -2 -2
5 4 9 10 9 7 6 4 5 5 5 5 5 5 4 2 2 1 0 0 -0 0 -1 -1 -1 -1 -1 -1 -1 -0 -1 -1 -1 -1 -1 -1 -1 -1 -1 -2 -2 -2 -2 -2 -2 -2 -2 -2 -2
5 7 9 9 9 8 7 4 5 5 5 5 4 6 4 3 1 0 0 -0 -0 -0 -1 -1 -2 -1 -1 -1 -0 -0 -0 -1 -1 -1 -1 -1 -1 -1 -1 -1 -2 -2 -2 -2 -2 -2 -2 -2 -2
5 6 9 9 9 8 6 5 4 4 5 4 3 6 5 3 1 0 0 0 -0 -0 -0 -1 -1 -1 -2 -2 0 -0 -0 -0 -1 -1 -1 -1 -1 -1 -1 -1 -1 -1 -2 -2 -2 -2 -2 -2 -1
4 8 9 9 9 8 6 5 4 3 4 4 4 4 3 2 1 1 1 2 1 0 -0 -1 -1 -1 -1 -2 -1 -1 -1 -1 -0 -1 -1 -0 -1 -1 -1 -1 -1 -1 -2 -2 -2 -2 -2 -1 -0
6 8 8 7 7 7 6 5 4 5 5 5 5 3 2 2 2 3 3 3 2 2 1 -0 -0 -0 -1 -1 -1 -1 -1 -1 -1 -1 -1 -1 -1 -2 -1 -1 -1 -1 -1 -1 -1 -1 -1 0 1
7 8 7 7 6 6 6 5 4 5 6 4 5 4 3 3 3 3 3 3 3 2 1 0 -0 0 -0 -1 0 -1 -0 -1 -1 -1 -1 -1 -2 -1 -1 -2 -2 -2 -1 -0 -0 -0 -0 0 1
8 7 7 6 6 7 7 5 5 5 5 4 3 3 3 4 4 3 3 3 2 2 1 1 0 1 1 1 1 1 1 1 0 0 -1 -1 0 -0 -1 -1 -2 -1 -1 -1 -0 -0 -1 -0 1
8 7 6 6 6 6 6 6 5 5 3 3 3 4 4 4 3 3 2 2 2 2 1 0 1 2 2 2 1 1 1 1 1 1 0 -1 0 0 0 -0 -1 -1 -1 -1 -0 -0 0 0 1
7 7 7 6 6 6 7 6 6 4 3 4 4 4 4 4 3 3 3 3 2 2 1 1 1 2 2 2 1 2 1 1 1 1 0 -0 0 1 1 1 0 -0 -1 -1 -0 -0 1 1 1
7 9 8 7 7 7 6 6 6 4 4 5 5 4 4 4 3 3 3 3 2 2 1 1 1 2 2 2 2 2 1 1 1 1 -0 -1 -0 0 1 1 1 1 0 -0 -0 0 1 1 1
8 8 11 8 8 7 6 8 6 4 5 6 5 5 4 4 3 2 2 2 2 2 2 2 2 2 2 2 2 1 1 2 1 1 1 0 0 0 1 1 1 0 1 1 1 1 1 1 2
9 11 10 10 8 8 7 8 6 5 5 5 5 5 5 4 3 2 2 2 2 1 1 2 2 3 2 2 1 1 1 2 1 1 0 1 1 0 1 2 1 0 1 1 1 1 1 2 2
11 11 10 10 9 8 8 7 5 5 5 6 5 5 5 4 4 3 2 2 2 1 1 1 1 3 1 1 1 1 1 1 1 1 0 0 1 0 1 1 1 0 0 0 1 1 0 1 1
9 10 10 9 9 10 10 8 6 5 5 6 5 5 5 5 3 2 2 2 2 2 2 1 2 2 1 2 2 2 2 1 1 1 1 0 1 0 -0 0 0 0 0 -0 -0 0 1 1 0
10 11 10 9 9 9 10 8 6 5 5 5 5 5 5 5 4 3 2 2 2 2 2 2 2 1 1 1 1 0 1 1 1 2 1 0 -0 1 1 -0 1 0 0 -0 -0 -0 1 0 -0
11 11 10 11 10 9 9 10 7 6 5 5 5 4 4 5 5 4 3 2 2 2 2 2 2 2 1 1 1 2 2 1 2 1 1 1 -0 1 1 0 -0 -0 -0 0 -0 -0 0 1 0
12 9 10 10 11 13 9 13 8 7 6 5 5 5 5 4 4 4 3 3 2 2 1 1 2 2 2 1 2 2 3 4 1 1 1 1 0 1 1 -0 -1 -1 -1 -0 -0 -0 -0 0 2
11 9 10 10 11 11 11 12 9 7 8 6 5 4 4 4 4 4 3 3 2 1 1 1 1 2 2 2 2 2 3 3 2 1 1 1 1 0 0 -0 -1 -1 -1 -0 -0 -0 -0 -0 1
9 10 10 10 11 14 11 11 10 8 8 6 5 5 4 4 4 3 3 2 2 1 1 1 1 1 1 2 2 3 2 2 2 2 2 2 2 1 1 0 -0 -1 -1 -0 -0 -1 -0 -0 -0
9 11 14 15 15 15 10 11 10 7 6 6 5 5 4 4 4 4 3 3 2 2 2 2 1 2 1 2 1 2 2 2 3 2 2 1 2 2 2 0 -0 -0 -0 -1 -1 -0 -1 -0 0
11 11 13 17 16 14 10 13 10 6 5 5 4 4 4 4 4 4 3 3 2 2 2 1 2 2 1 1 1 1 1 2 1 1 1 2 1 0 1 -0 -1 -0 -1 -1 -1 -0 -0 -1 -0
11 12 9 12 12 13 12 10 8 6 6 5 5 5 5 4 4 4 3 3 2 2 2 2 1 1 1 1 1 1 1 0 0 0 -0 0 0 0 -0 -0 -0 -0 -1 -1 -1 -0 -0 -0 -0
9 8 12 12 17 18 13 12 12 9 7 6 6 5 5 4 4 3 3 3 2 2 1 1 1 1 1 1 1 1 0 0 0 0 0 0 -0 -0 -0 -0 -0 -0 -1 -1 -1 -0 -0 -0 -0
11 11 10 10 11 15 16 13 8 8 6 6 5 5 4 4 4 4 3 2 2 2 2 1 1 1 1 1 1 1 1 0 0 0 0 -0 -0 -0 -0 -0 -0 -0 -0 -0 -0 -0 -0 0 0
9 10 10 13 14 12 13 13 7 7 6 6 5 4 4 4 3 3 3 3 3 2 2 2 1 1 1 1 1 1 0 0 1 1 0 -0 0 -0 -0 -0 -0 -0 -0 -0 0 0 0 1 1

GFSSGP_con_lsi_069.txt.gz
Lid_Strength_Index
0 1 -0 2 6 7 8 8 6 7 6 4 4 5 5 5 6 8 1 0 0 -0 -1 -1 -1 -1 -1 -1 -1 -1 -1 -1 -1 -1 -1 -1 -1 -1 -1 -1 -1 -2 -2 -2 -2 -2 -2 -2 -2
0 0 1 3 8 9 9 6 8 6 5 4 4 4 5 6 3 2 2 0 -0 -0 -1 -1 -1 -1 -1 -1 -1 -1 -1 -1 -1 -1 -1 -1 -1 -1 -1 -1 -1 -2 -2 -2 -2 -2 -2 -2 -2
-0 0 4 6 7 9 9 6 6 5 4 4 5 3 4 5 3 2 1 0 -0 -0 -1 -1 -1 -0 -1 -1 -1 -1 -1 -1 -1 -1 -1 -1 -1 -2 -2 -1 -1 -2 -2 -2 -2 -2 -2 -2 -2
1 2 4 7 8 7 7 6 5 5 4 4 4 5 3 2 3 1 0 0 0 -0 -1 -0 -0 -0 -1 -1 -1 -1 -1 -1 -1 -1 -1 -1 -1 -2 -2 -1 -2 -2 -2 -2 -2 -2 -2 -2 -2
2 3 7 8 8 6 6 5 5 5 5 5 4 5 4 2 1 1 0 0 0 -0 -1 -1 -0 -0 -1 -1 -1 -1 -1 -1 -1 -1 -1 -1 -1 -2 -2 -1 -2 -2 -2 -2 -2 -2 -2 -2 -2
4 4 8 9 8 6 5 5 5 5 4 4 5 5 4 1 2 1 0 0 -0 -0 -1 -1 -1 -1 -1 -1 -1 0 -1 -1 -1 -1 -1 -1 -1 -1 -1 -1 -2 -2 -2 -2 -2 -2 -2 -2 -2
5 6 8 8 8 7 6 4 5 5 5 5 3 6 3 3 1 0 0 -0 -0 -1 -0 -1 -1 -1 -1 -0 -0 1 1 -0 -1 -1 -1 -1 -1 -1 -1 -1 -1 -2 -2 -2 -2 -2 -2 -2 -1
4 5 8 7 8 8 5 5 4 4 5 3 3 5 5 3 1 1 0 0 0 -0 -0 -0 -1 -1 -1 -1 -0 -1 -0 -0 -0 -1 -0 -1 -1 -1 -1 -1 -1 -2 -2 -2 -2 -2 -2 -1 -1
3 7 8 7 7 7 5 6 4 3 4 3 3 3 3 2 1 1 1 1 1 0 0 -0 -0 -0 -1 -1 -1 -1 -1 -1 -0 -1 -0 -0 -1 -1 -1 -1 -1 -1 -2 -2 -1 -1 -1 -1 -1
6 8 7 5 5 6 5 6 5 5 4 4 4 2 2 2 2 2 2 3 2 1 1 -0 -0 -0 -1 -1 -1 -1 -1 -1 -1 -1 -1 -1 -1 -1 -1 -1 -1 -1 -1 -1 -1 -1 -1 -0 1
5 8 5 5 5 5 6 6 5 6 6 4 4 3 3 3 3 3 3 2 2 1 1 0 -0 -1 -0 -1 -1 -1 -1 -1 -1 -1 -1 -1 -1 -1 -1 -1 -1 -0 -1 0 0 1 1 1 2
7 6 5 5 5 6 6 5 6 5 4 3 3 3 3 3 3 3 3 2 2 2 1 0 -0 -0 -0 -1 -0 -0 -0 -0 -0 0 -0 0 0 -0 -1 -1 -0 -0 -0 0 1 1 -0 0 1
7 6 5 5 6 6 5 6 6 6 3 2 3 3 3 3 3 2 2 2 2 2 1 1 0 0 -0 0 -0 -0 0 -0 -0 0 0 1 1 -0 -1 -1 -0 -0 -1 -0 1 0 0 0 1
5 5 6 6 6 6 7 6 6 5 3 3 3 4 3 3 3 3 2 3 2 2 1 1 1 1 1 0 1 0 0 1 1 1 1 1 0 0 -0 -1 -1 -1 -1 -0 -0 0 1 1 1
5 7 6 6 6 7 6 8 7 4 3 4 4 4 3 3 3 3 2 2 2 1 1 1 2 2 2 2 1 2 1 1 2 1 1 1 0 -0 -0 -1 -0 -1 -0 -2 -1 0 1 1 1
7 7 10 7 7 6 7 10 6 4 4 4 4 4 4 3 3 2 2 2 2 1 1 1 1 2 2 2 2 2 1 2 2 2 1 1 0 -1 -1 0 0 -0 -1 -1 0 1 2 2 2
7 10 9 8 6 7 8 9 5 4 4 5 4 4 4 4 3 2 2 1 2 1 1 1 1 2 2 2 1 1 2 1 2 2 1 1 0 -0 -0 0 1 -1 0 -0 0 1 1 1 2
10 9 9 9 7 8 8 8 5 4 5 5 4 4 4 4 3 2 2 1 1 1 1 1 1 2 2 1 1 2 2 2 2 2 1 0 0 0 1 1 -0 0 1 1 1 1 1 1 1
8 8 9 7 6 8 8 8 7 5 5 5 5 4 4 4 3 2 2 1 2 2 2 1 2 2 2 2 2 3 3 3 2 2 1 1 0 0 0 1 0 0 1 1 0 0 0 1 1
8 9 9 8 7 8 9 9 7 5 5 4 4 4 4 4 3 3 2 2 2 2 2 2 2 2 2 1 1 2 2 2 2 2 1 0 0 0 1 1 0 -0 0 -0 -0 0 1 1 -0
9 9 9 9 7 7 9 10 8 5 5 4 4 4 4 4 4 4 3 2 2 2 2 2 1 1 1 1 1 1 1 2 2 2 2 1 0 0 1 -0 -0 -0 -0 0 0 0 1 2 1
11 8 9 9 10 12 8 13 8 7 6 5 5 4 4 4 4 3 3 3 2 2 2 1 1 1 1 1 1 1 2 3 2 2 2 2 -0 0 0 -0 0 -0 -0 -0 0 -0 0 1 2
10 8 9 9 10 10 10 11 9 7 8 6 5 4 4 3 3 3 3 2 2 2 2 1 1 1 1 1 1 1 2 1 1 2 2 2 1 0 0 0 0 1 -0 -0 -0 -0 0 0 1
8 9 9 9 10 14 11 11 10 8 8 6 5 4 4 4 3 3 2 2 2 1 2 2 2 2 1 1 1 1 2 1 2 2 2 2 1 -0 -0 1 1 0 -0 -0 -0 0 0 0 0
9 11 14 15 15 15 9 11 9 7 6 6 5 4 4 3 3 3 3 3 2 2 2 2 2 2 1 1 1 1 1 2 2 1 1 2 2 1 0 1 1 1 1 -0 -0 0 -0 0 0
10 11 13 18 17 14 9 12 10 6 5 5 4 4 4 4 3 3 3 3 2 2 2 2 2 2 2 1 1 1 1 1 1 1 1 1 1 1 0 0 1 -0 0 -0 -1 -0 0 -0 1
11 12 9 11 12 14 11 9 7 6 6 5 5 4 4 4 4 3 3 3 2 2 2 2 2 1 1 1 1 1 1 1 1 1 0 0 0 1 1 0 -0 -0 -0 -0 -0 0 0 0 0
10 8 12 11 17 18 14 12 11 8 7 6 6 5 4 4 4 3 3 3 2 2 1 1 1 1 1 1 1 1 1 1 0 0 1 1 0 0 0 0 0 0 0 -0 -0 0 -0 0 0
12 11 10 10 11 16 17 13 7 7 7 6 5 5 4 4 4 3 3 2 2 2 2 2 1 1 1 1 1 1 1 1 0 1 0 0 0 0 0 0 0 0 0 0 0 0 0 1 1
9 10 9 13 14 12 13 14 7 6 6 5 5 4 4 3 3 3 3 3 2 2 2 2 2 1 1 1 1 1 1 1 1 1 0 0 0 -0 0 0 0 0 0 0 0 1 0 1 1